Time,TemperatureF,DewpointF,PressureIn,WindDirection,WindDirectionDegrees,WindSpeedMPH,WindSpeedGustMPH,Humidity,HourlyPrecipIn,Conditions,Clouds,dailyrainin,SolarRadiationWatts/m^2,SoftwareType,DateUTC
2013-06-30 00:02:00,66.0,63.0,29.67,NNE,28,0.0,0.0,90,0.00,,,0.22,0.000000,,2013-06-30 04:02:00,
2013-06-30 00:12:00,66.0,63.0,29.67,NNE,28,0.0,0.0,90,0.00,,,0.22,0.000000,,2013-06-30 04:12:00,
2013-06-30 00:22:00,65.0,62.0,29.67,NNE,28,0.0,0.0,91,0.00,,,0.22,0.000000,,2013-06-30 04:22:00,
2013-06-30 00:33:00,65.0,62.0,29.67,NNE,28,0.0,0.0,91,0.00,,,0.22,0.000000,,2013-06-30 04:33:00,
2013-06-30 00:43:00,65.0,62.0,29.67,NNE,28,0.0,1.0,91,0.00,,,0.22,0.000000,,2013-06-30 04:43:00,
2013-06-30 00:53:00,65.0,62.0,29.67,NNE,28,0.0,0.0,91,0.00,,,0.22,0.000000,,2013-06-30 04:53:00,
2013-06-30 01:02:00,65.0,62.0,29.67,NNE,28,0.0,0.0,91,0.00,,,0.22,0.000000,,2013-06-30 05:02:00,
2013-06-30 01:12:00,65.0,63.0,29.67,NNE,28,0.0,0.0,92,0.00,,,0.22,0.000000,,2013-06-30 05:12:00,
2013-06-30 01:22:00,64.0,62.0,29.67,NNE,28,0.0,0.0,93,0.00,,,0.12,0.000000,,2013-06-30 05:22:00,
2013-06-30 01:34:00,64.0,62.0,29.67,NNE,28,0.0,0.0,93,0.00,,,0.12,0.000000,,2013-06-30 05:34:00,
2013-06-30 01:43:00,64.0,62.0,29.67,NNE,28,0.0,0.0,93,0.00,,,0.12,0.000000,,2013-06-30 05:43:00,
2013-06-30 01:53:00,64.0,62.0,29.67,NNE,28,0.0,0.0,93,0.00,,,0.12,0.000000,,2013-06-30 05:53:00,
2013-06-30 02:02:00,64.0,62.0,29.67,NNE,28,0.0,0.0,93,0.00,,,0.12,0.000000,,2013-06-30 06:02:00,
2013-06-30 02:12:00,64.0,62.0,29.68,NNE,28,0.0,1.0,94,0.00,,,0.12,0.000000,,2013-06-30 06:12:00,
2013-06-30 02:23:00,65.0,63.0,29.68,NNE,28,0.0,0.0,93,0.00,,,0.12,0.000000,,2013-06-30 06:23:00,
2013-06-30 02:34:00,65.0,63.0,29.68,NNE,28,0.0,0.0,93,0.00,,,0.12,0.000000,,2013-06-30 06:34:00,
2013-06-30 02:43:00,65.0,63.0,29.69,NNE,28,0.0,1.0,94,0.00,,,0.12,0.000000,,2013-06-30 06:43:00,
2013-06-30 02:53:00,65.0,63.0,29.69,NNE,28,0.0,0.0,94,0.00,,,0.12,0.000000,,2013-06-30 06:53:00,
2013-06-30 03:02:00,65.0,63.0,29.69,NNE,28,0.0,0.0,94,0.00,,,0.12,0.000000,,2013-06-30 07:02:00,
2013-06-30 03:12:00,65.0,63.0,29.69,NNE,28,0.0,0.0,94,0.00,,,0.12,0.000000,,2013-06-30 07:12:00,
2013-06-30 03:22:00,64.0,62.0,29.69,NNE,28,0.0,0.0,94,0.00,,,0.12,0.000000,,2013-06-30 07:22:00,
2013-06-30 03:33:00,64.0,62.0,29.69,NNE,28,0.0,0.0,94,0.00,,,0.12,0.000000,,2013-06-30 07:33:00,
2013-06-30 03:44:00,63.0,62.0,29.68,NNE,28,0.0,0.0,95,0.00,,,0.12,0.000000,,2013-06-30 07:44:00,
2013-06-30 03:53:00,63.0,62.0,29.69,NNE,28,0.0,0.0,96,0.00,,,0.12,0.000000,,2013-06-30 07:53:00,
2013-06-30 04:02:00,63.0,62.0,29.69,NNE,28,0.0,0.0,96,0.00,,,0.12,0.000000,,2013-06-30 08:02:00,
2013-06-30 04:12:00,63.0,62.0,29.69,NNE,28,0.0,0.0,95,0.00,,,0.12,0.000000,,2013-06-30 08:12:00,
2013-06-30 04:22:00,63.0,62.0,29.69,NNE,28,0.0,0.0,96,0.00,,,0.12,0.000000,,2013-06-30 08:22:00,
2013-06-30 04:33:00,63.0,62.0,29.69,NNE,28,0.0,0.0,96,0.00,,,0.12,0.000000,,2013-06-30 08:33:00,
2013-06-30 04:42:00,62.0,61.0,29.69,NNE,28,0.0,0.0,96,0.00,,,0.12,0.000000,,2013-06-30 08:42:00,
2013-06-30 04:53:00,62.0,61.0,29.70,NNE,28,0.0,2.0,97,0.00,,,0.12,0.000000,,2013-06-30 08:53:00,
2013-06-30 05:02:00,62.0,61.0,29.70,NNE,28,0.0,2.0,97,0.00,,,0.12,0.000000,,2013-06-30 09:02:00,
2013-06-30 05:12:00,62.0,61.0,29.70,NNE,28,2.0,5.0,97,0.00,,,0.12,0.000000,,2013-06-30 09:12:00,
2013-06-30 05:23:00,62.0,61.0,29.70,NNE,28,0.0,3.0,97,0.00,,,0.10,0.000000,,2013-06-30 09:23:00,
2013-06-30 05:34:00,62.0,61.0,29.70,NNE,28,0.0,3.0,97,0.00,,,0.10,0.000000,,2013-06-30 09:34:00,
2013-06-30 05:43:00,62.0,61.0,29.70,NNE,28,0.0,3.0,96,0.00,,,0.10,0.000000,,2013-06-30 09:43:00,
2013-06-30 05:53:00,62.0,61.0,29.70,NNE,28,0.0,5.0,96,0.00,,,0.10,0.000000,,2013-06-30 09:53:00,
2013-06-30 06:02:00,62.0,61.0,29.70,NNE,28,0.0,5.0,96,0.00,,,0.10,0.000000,,2013-06-30 10:02:00,
2013-06-30 06:11:00,62.0,61.0,29.70,NNE,28,0.0,3.0,96,0.00,,,0.10,0.000000,,2013-06-30 10:11:00,
2013-06-30 06:22:00,62.0,61.0,29.71,NNE,28,0.0,3.0,96,0.00,,,0.07,11.000000,,2013-06-30 10:22:00,
2013-06-30 06:33:00,62.0,61.0,29.71,NNE,28,0.0,3.0,96,0.00,,,0.07,11.000000,,2013-06-30 10:33:00,
2013-06-30 06:42:00,62.0,61.0,29.72,NNE,28,0.0,1.0,96,0.00,,,0.07,23.000000,,2013-06-30 10:42:00,
2013-06-30 06:53:00,62.0,61.0,29.72,NNE,28,0.0,0.0,96,0.00,,,0.07,40.000000,,2013-06-30 10:53:00,
2013-06-30 07:02:00,62.0,61.0,29.72,NNE,28,0.0,0.0,96,0.00,,,0.07,40.000000,,2013-06-30 11:02:00,
2013-06-30 07:11:00,62.0,61.0,29.73,NNE,28,0.0,0.0,96,0.00,,,0.07,63.000000,,2013-06-30 11:11:00,
2013-06-30 07:22:00,62.0,61.0,29.73,NNE,28,0.0,0.0,95,0.00,,,0.07,84.000000,,2013-06-30 11:22:00,
2013-06-30 07:33:00,62.0,61.0,29.73,NNE,28,0.0,0.0,95,0.00,,,0.07,84.000000,,2013-06-30 11:33:00,
2013-06-30 07:43:00,63.0,62.0,29.73,NNE,28,0.0,2.0,95,0.00,,,0.07,111.000000,,2013-06-30 11:43:00,
2013-06-30 07:53:00,64.0,62.0,29.74,NE,38,1.0,5.0,93,0.00,,,0.07,111.000000,,2013-06-30 11:53:00,
2013-06-30 08:02:00,64.0,62.0,29.74,NE,38,1.0,5.0,93,0.00,,,0.07,111.000000,,2013-06-30 12:02:00,
2013-06-30 08:11:00,64.0,61.0,29.74,NNE,17,2.0,8.0,91,0.00,,,0.07,179.000000,,2013-06-30 12:11:00,
2013-06-30 08:24:00,64.0,61.0,29.74,NE,34,1.0,5.0,91,0.00,,,0.05,338.000000,,2013-06-30 12:24:00,
2013-06-30 08:33:00,64.0,61.0,29.74,NE,34,1.0,5.0,91,0.00,,,0.05,338.000000,,2013-06-30 12:33:00,
2013-06-30 08:43:00,66.0,62.0,29.75,East,90,0.0,4.0,87,0.00,,,0.05,272.000000,,2013-06-30 12:43:00,
2013-06-30 08:52:00,66.0,61.0,29.75,East,88,1.0,7.0,85,0.00,,,0.05,250.000000,,2013-06-30 12:52:00,
2013-06-30 09:02:00,66.0,61.0,29.75,East,88,1.0,7.0,85,0.00,,,0.05,250.000000,,2013-06-30 13:02:00,
2013-06-30 09:12:00,66.0,61.0,29.76,North,5,0.0,6.0,85,0.00,,,0.05,211.000000,,2013-06-30 13:12:00,
2013-06-30 09:22:00,67.0,63.0,29.77,SSE,151,1.0,5.0,86,0.00,,,0.04,598.000000,,2013-06-30 13:22:00,
2013-06-30 09:34:00,67.0,63.0,29.77,SSE,151,1.0,5.0,86,0.00,,,0.04,598.000000,,2013-06-30 13:34:00,
2013-06-30 09:43:00,68.0,63.0,29.77,East,86,1.0,4.0,85,0.00,,,0.04,346.000000,,2013-06-30 13:43:00,
2013-06-30 09:53:00,68.0,63.0,29.77,East,88,0.0,7.0,84,0.00,,,0.04,496.000000,,2013-06-30 13:53:00,
2013-06-30 10:02:00,68.0,63.0,29.77,East,88,0.0,7.0,84,0.00,,,0.04,496.000000,,2013-06-30 14:02:00,
2013-06-30 10:11:00,69.0,63.0,29.76,East,96,0.0,4.0,82,0.00,,,0.04,795.000000,,2013-06-30 14:11:00,
2013-06-30 10:22:00,69.0,63.0,29.76,East,82,0.0,6.0,81,0.00,,,0.04,306.000000,,2013-06-30 14:22:00,
2013-06-30 10:33:00,69.0,63.0,29.76,East,82,0.0,6.0,81,0.00,,,0.04,306.000000,,2013-06-30 14:33:00,
2013-06-30 10:44:00,69.0,63.0,29.77,North,350,2.0,6.0,82,0.00,,,0.04,497.000000,,2013-06-30 14:44:00,
2013-06-30 10:52:00,69.0,62.0,29.77,North,5,2.0,7.0,79,0.00,,,0.04,454.000000,,2013-06-30 14:52:00,
2013-06-30 11:02:00,69.0,62.0,29.77,North,5,2.0,7.0,79,0.00,,,0.04,454.000000,,2013-06-30 15:02:00,
2013-06-30 11:12:00,70.0,62.0,29.77,NE,38,1.0,5.0,77,0.00,,,0.04,411.000000,,2013-06-30 15:12:00,
2013-06-30 11:23:00,71.0,63.0,29.77,ENE,77,1.0,4.0,77,0.00,,,0.02,543.000000,,2013-06-30 15:23:00,
2013-06-30 11:34:00,71.0,63.0,29.77,ENE,77,1.0,4.0,77,0.00,,,0.02,543.000000,,2013-06-30 15:34:00,
2013-06-30 11:44:00,71.0,64.0,29.78,NNW,330,2.0,8.0,78,0.00,,,0.02,424.000000,,2013-06-30 15:44:00,
2013-06-30 11:53:00,71.0,63.0,29.78,NNW,337,2.0,8.0,77,0.00,,,0.02,,,2013-06-30 15:53:00,
2013-06-30 12:01:00,71.0,63.0,29.78,NNW,337,2.0,8.0,77,0.00,,,0.02,,,2013-06-30 16:01:00,
2013-06-30 12:11:00,71.0,63.0,29.78,NNW,338,0.0,6.0,76,0.00,,,0.02,411.000000,,2013-06-30 16:11:00,
2013-06-30 12:21:00,71.0,63.0,29.78,North,5,2.0,4.0,76,0.00,,,0.02,346.000000,,2013-06-30 16:21:00,
2013-06-30 12:34:00,71.0,63.0,29.78,North,5,2.0,4.0,76,0.00,,,0.02,346.000000,,2013-06-30 16:34:00,
2013-06-30 12:44:00,71.0,64.0,29.78,NNW,340,3.0,7.0,79,0.00,,,0.02,436.000000,,2013-06-30 16:44:00,
2013-06-30 12:53:00,71.0,64.0,29.78,NW,321,3.0,7.0,78,0.00,,,0.02,501.000000,,2013-06-30 16:53:00,
2013-06-30 13:02:00,71.0,64.0,29.78,NW,321,3.0,7.0,78,0.00,,,0.02,501.000000,,2013-06-30 17:02:00,
2013-06-30 13:11:00,71.0,65.0,29.78,North,360,3.0,7.0,80,0.00,,,0.02,339.000000,,2013-06-30 17:11:00,
2013-06-30 13:23:00,71.0,65.0,29.78,NNE,24,3.0,9.0,81,0.00,,,0.02,272.000000,,2013-06-30 17:23:00,
2013-06-30 13:34:00,71.0,65.0,29.78,NNE,24,3.0,9.0,81,0.00,,,0.02,272.000000,,2013-06-30 17:34:00,
2013-06-30 13:43:00,71.0,65.0,29.78,NNW,346,1.0,8.0,81,0.00,,,0.02,183.000000,,2013-06-30 17:43:00,
2013-06-30 13:52:00,71.0,65.0,29.78,NNE,22,3.0,8.0,82,0.00,,,0.02,301.000000,,2013-06-30 17:52:00,
2013-06-30 14:02:00,71.0,65.0,29.78,NNE,22,3.0,8.0,82,0.00,,,0.02,301.000000,,2013-06-30 18:02:00,
2013-06-30 14:12:00,71.0,66.0,29.78,NNE,13,2.0,10.0,83,0.00,,,0.02,469.000000,,2013-06-30 18:12:00,
2013-06-30 14:22:00,71.0,65.0,29.78,NNW,347,3.0,11.0,82,0.00,,,0.01,388.000000,,2013-06-30 18:22:00,
2013-06-30 14:34:00,71.0,65.0,29.78,NNW,347,3.0,11.0,82,0.00,,,0.01,388.000000,,2013-06-30 18:34:00,
2013-06-30 14:43:00,71.0,65.0,29.78,NNE,15,2.0,8.0,82,0.00,,,0.01,362.000000,,2013-06-30 18:43:00,
2013-06-30 14:53:00,71.0,65.0,29.78,NW,321,4.0,10.0,81,0.00,,,0.01,378.000000,,2013-06-30 18:53:00,
2013-06-30 15:01:00,71.0,65.0,29.78,NW,321,4.0,10.0,81,0.00,,,0.01,378.000000,,2013-06-30 19:01:00,
2013-06-30 15:11:00,70.0,64.0,29.79,NNW,336,4.0,11.0,82,0.00,,,0.01,156.000000,,2013-06-30 19:11:00,
2013-06-30 15:22:00,70.0,65.0,29.78,NNW,346,6.0,10.0,84,0.00,,,0.00,190.000000,,2013-06-30 19:22:00,
2013-06-30 15:33:00,70.0,65.0,29.78,NNW,346,6.0,10.0,84,0.00,,,0.00,190.000000,,2013-06-30 19:33:00,
2013-06-30 15:43:00,69.0,64.0,29.78,North,11,5.0,10.0,84,0.00,,,0.00,243.000000,,2013-06-30 19:43:00,
2013-06-30 15:53:00,69.0,64.0,29.78,North,351,5.0,10.0,84,0.00,,,0.00,316.000000,,2013-06-30 19:53:00,
2013-06-30 16:02:00,69.0,64.0,29.78,North,351,5.0,10.0,84,0.00,,,0.00,316.000000,,2013-06-30 20:02:00,
2013-06-30 16:12:00,69.0,64.0,29.79,North,355,4.0,11.0,83,0.00,,,0.00,343.000000,,2013-06-30 20:12:00,
2013-06-30 16:22:00,69.0,64.0,29.79,ENE,72,2.0,8.0,84,0.00,,,0.00,360.000000,,2013-06-30 20:22:00,
2013-06-30 16:34:00,69.0,64.0,29.79,ENE,72,2.0,8.0,84,0.00,,,0.00,360.000000,,2013-06-30 20:34:00,
2013-06-30 16:42:00,70.0,64.0,29.79,North,5,6.0,11.0,82,0.00,,,0.00,628.000000,,2013-06-30 20:42:00,
2013-06-30 16:52:00,70.0,64.0,29.79,NNW,336,5.0,14.0,81,0.00,,,0.00,613.000000,,2013-06-30 20:52:00,
2013-06-30 17:01:00,70.0,64.0,29.79,NNW,336,5.0,14.0,81,0.00,,,0.00,613.000000,,2013-06-30 21:01:00,
2013-06-30 17:11:00,70.0,64.0,29.79,NW,321,6.0,10.0,80,0.00,,,0.00,497.000000,,2013-06-30 21:11:00,
2013-06-30 17:22:00,71.0,65.0,29.79,North,11,3.0,10.0,80,0.00,,,0.00,612.000000,,2013-06-30 21:22:00,
2013-06-30 17:34:00,71.0,65.0,29.79,North,11,3.0,10.0,80,0.00,,,0.00,612.000000,,2013-06-30 21:34:00,
2013-06-30 17:43:00,71.0,64.0,29.80,North,355,4.0,10.0,78,0.00,,,0.00,571.000000,,2013-06-30 21:43:00,
2013-06-30 17:53:00,71.0,64.0,29.80,NE,38,4.0,9.0,78,0.00,,,0.00,649.000000,,2013-06-30 21:53:00,
2013-06-30 18:01:00,71.0,64.0,29.80,NE,38,4.0,9.0,78,0.00,,,0.00,649.000000,,2013-06-30 22:01:00,
2013-06-30 18:11:00,71.0,64.0,29.80,NW,319,2.0,10.0,78,0.00,,,0.00,547.000000,,2013-06-30 22:11:00,
2013-06-30 18:22:00,71.0,64.0,29.80,North,350,2.0,10.0,78,0.00,,,0.00,285.000000,,2013-06-30 22:22:00,
2013-06-30 18:34:00,71.0,64.0,29.80,North,350,2.0,10.0,78,0.00,,,0.00,285.000000,,2013-06-30 22:34:00,
2013-06-30 18:43:00,71.0,63.0,29.81,North,360,3.0,10.0,77,0.00,,,0.00,304.000000,,2013-06-30 22:43:00,
2013-06-30 18:53:00,71.0,63.0,29.81,North,9,3.0,8.0,76,0.00,,,0.00,236.000000,,2013-06-30 22:53:00,
2013-06-30 19:02:00,71.0,63.0,29.81,North,9,3.0,8.0,76,0.00,,,0.00,236.000000,,2013-06-30 23:02:00,
2013-06-30 19:11:00,71.0,63.0,29.81,NW,323,1.0,8.0,76,0.00,,,0.00,220.000000,,2013-06-30 23:11:00,
2013-06-30 19:22:00,71.0,63.0,29.82,NNE,21,2.0,8.0,75,0.00,,,0.00,200.000000,,2013-06-30 23:22:00,
2013-06-30 19:33:00,71.0,63.0,29.82,NNE,21,2.0,8.0,75,0.00,,,0.00,200.000000,,2013-06-30 23:33:00,
2013-06-30 19:44:00,71.0,63.0,29.82,North,360,0.0,5.0,75,0.00,,,0.00,171.000000,,2013-06-30 23:44:00,
2013-06-30 19:53:00,71.0,62.0,29.83,WNW,300,0.0,7.0,74,0.00,,,0.00,81.000000,,2013-06-30 23:53:00,
2013-06-30 20:01:00,71.0,62.0,29.83,WNW,300,0.0,7.0,74,0.00,,,0.00,81.000000,,2013-07-01 00:01:00,
2013-06-30 20:11:00,71.0,63.0,29.84,NE,50,0.0,5.0,75,0.00,,,0.00,65.000000,,2013-07-01 00:11:00,
2013-06-30 20:22:00,69.0,62.0,29.83,NNW,327,2.0,5.0,79,0.00,,,0.00,62.000000,,2013-07-01 00:22:00,
2013-06-30 20:33:00,69.0,62.0,29.83,NNW,327,2.0,5.0,79,0.00,,,0.00,62.000000,,2013-07-01 00:33:00,
2013-06-30 20:42:00,69.0,63.0,29.84,NNW,348,0.0,3.0,81,0.00,,,0.00,46.000000,,2013-07-01 00:42:00,
2013-06-30 21:01:00,68.0,62.0,29.84,NNW,345,1.0,4.0,82,0.00,,,0.00,25.000000,,2013-07-01 01:01:00,
2013-06-30 21:11:00,68.0,62.0,29.84,NNW,345,1.0,4.0,82,0.00,,,0.00,25.000000,,2013-07-01 01:11:00,
2013-06-30 21:22:00,68.0,62.0,29.84,North,351,1.0,4.0,82,0.00,,,0.00,11.000000,,2013-07-01 01:22:00,
2013-06-30 21:33:00,68.0,62.0,29.84,North,351,1.0,4.0,82,0.00,,,0.00,11.000000,,2013-07-01 01:33:00,
2013-06-30 21:42:00,67.0,62.0,29.85,North,351,0.0,4.0,84,0.00,,,0.00,0.000000,,2013-07-01 01:42:00,
2013-06-30 21:52:00,67.0,62.0,29.85,North,351,0.0,1.0,84,0.00,,,0.00,0.000000,,2013-07-01 01:52:00,
2013-06-30 22:02:00,67.0,62.0,29.85,North,351,0.0,1.0,84,0.00,,,0.00,0.000000,,2013-07-01 02:02:00,
2013-06-30 22:12:00,67.0,62.0,29.85,North,351,0.0,1.0,85,0.00,,,0.00,0.000000,,2013-07-01 02:12:00,
2013-06-30 22:22:00,66.0,61.0,29.85,North,355,1.0,3.0,85,0.00,,,0.00,0.000000,,2013-07-01 02:22:00,
2013-06-30 22:33:00,66.0,61.0,29.85,North,355,1.0,3.0,85,0.00,,,0.00,0.000000,,2013-07-01 02:33:00,
2013-06-30 22:44:00,66.0,62.0,29.86,North,355,1.0,4.0,86,0.00,,,0.00,0.000000,,2013-07-01 02:44:00,
2013-06-30 22:53:00,66.0,62.0,29.86,North,355,1.0,4.0,86,0.00,,,0.00,0.000000,,2013-07-01 02:53:00,
2013-06-30 23:01:00,66.0,62.0,29.86,North,355,0.0,3.0,86,0.00,,,0.00,0.000000,,2013-07-01 03:01:00,
2013-06-30 23:11:00,66.0,62.0,29.86,North,355,0.0,2.0,87,0.00,,,0.00,0.000000,,2013-07-01 03:11:00,
2013-06-30 23:23:00,66.0,62.0,29.86,North,355,0.0,1.0,87,0.00,,,0.00,0.000000,,2013-07-01 03:23:00,
2013-06-30 23:33:00,66.0,62.0,29.86,North,355,0.0,1.0,87,0.00,,,0.00,0.000000,,2013-07-01 03:33:00,
2013-06-30 23:43:00,66.0,62.0,29.86,North,355,0.0,0.0,88,0.00,,,0.00,0.000000,,2013-07-01 03:43:00,
2013-06-30 23:52:00,66.0,62.0,29.86,North,355,0.0,1.0,88,0.00,,,0.00,0.000000,,2013-07-01 03:52:00,